Wind_Speed
17 18 18 17 14 14 16 18 20 21 21 24 26 26 27 27 29 32 34 36 41 43 38 43 35 29 28 18 23 23 21 23 26 26 25 25 23 22 26 26 26 24 24
20 19 16 15 16 16 18 19 23 25 26 26 25 25 24 24 23 23 24 29 34 39 35 30 32 34 32 23 38 30 23 26 26 29 29 27 25 22 24 29 29 25 24
16 15 15 17 17 17 18 20 22 24 25 24 23 25 25 24 24 24 24 25 29 32 33 37 37 39 39 33 38 30 26 25 30 31 33 29 26 24 23 28 30 28 28
14 15 17 19 19 20 21 22 23 23 23 23 23 23 22 22 23 24 24 26 30 32 34 37 39 38 36 36 35 36 38 32 35 39 35 30 24 23 26 29 29 27 26
16 18 19 21 23 24 25 26 27 26 25 24 25 25 24 23 23 22 24 25 25 28 34 37 35 36 38 36 36 37 34 35 37 33 32 30 24 26 27 25 26 24 26
19 21 22 24 26 26 26 25 25 26 28 28 26 25 25 26 28 31 31 25 25 25 26 30 33 28 35 39 44 46 39 35 33 29 30 31 27 29 29 28 28 25 27
20 22 22 23 24 24 24 24 24 24 24 25 25 26 26 27 29 31 31 28 26 26 27 26 26 28 29 28 28 27 33 38 38 35 31 32 29 28 27 28 28 27 27
21 20 21 22 23 23 24 23 23 23 24 26 27 27 29 29 30 32 32 27 24 25 28 28 28 28 26 27 27 26 27 28 32 36 38 34 30 28 26 25 24 22 22
19 21 22 23 23 24 24 24 25 24 24 25 26 28 31 32 33 32 29 28 27 25 25 27 28 27 27 28 29 28 26 25 27 31 28 25 27 27 25 19 19 19 21
20 21 21 23 22 24 24 26 27 24 26 26 28 27 27 33 33 31 31 26 26 27 28 28 26 29 29 30 31 26 25 25 22 25 24 26 25 22 21 22 17 19 22
19 21 24 24 26 24 26 23 22 23 27 26 28 28 30 32 36 26 25 23 24 23 25 27 25 24 28 27 29 25 23 19 19 17 18 14 14 16 17 19 20 22 23
20 21 23 24 23 22 23 22 23 24 25 24 28 33 31 36 32 27 25 21 18 20 24 26 26 20 18 18 21 25 25 24 19 18 18 18 17 17 16 15 15 15 15
19 20 21 23 21 19 21 22 23 23 24 27 32 35 36 34 33 33 19 14 16 19 20 21 17 17 14 17 17 19 23 24 20 18 23 22 16 13 13 11 6 3 7
19 18 18 20 21 19 21 19 21 24 27 27 30 35 33 34 37 35 22 17 15 15 13 11 8 9 12 16 18 20 24 25 26 26 29 20 15 16 15 10 7 7 6
18 17 17 17 19 19 19 19 20 19 23 25 27 31 30 34 37 31 26 14 13 13 14 14 19 18 18 19 19 20 19 27 28 26 18 21 17 21 18 15 13 13 15
18 17 17 17 18 21 22 21 18 20 20 23 22 24 23 23 29 27 23 15 12 12 13 12 9 9 10 12 14 16 24 27 29 25 20 24 23 25 24 21 19 16 17
17 18 15 17 20 20 21 23 26 24 21 20 25 27 24 23 24 22 19 15 15 11 10 9 8 6 3 4 9 15 24 21 29 28 26 23 22 26 26 26 24 21 20
16 19 16 16 18 19 20 20 22 23 26 27 24 27 28 27 24 20 18 11 7 6 10 8 9 7 4 4 7 10 18 23 23 29 25 21 24 25 28 25 26 21 23
16 19 16 16 17 19 17 17 20 22 24 27 28 29 29 28 28 29 27 26 24 19 10 7 9 9 7 5 6 10 17 17 16 20 22 21 23 25 23 26 23 26 24
15 20 18 16 17 17 17 18 18 19 20 22 28 32 31 30 34 36 35 34 34 31 26 19 9 8 9 4 5 4 13 17 19 19 21 21 23 25 26 27 24 28 26
15 16 19 17 17 18 17 18 17 17 18 19 20 25 27 29 30 31 32 33 33 33 32 30 25 15 9 8 3 4 7 7 13 17 22 23 23 27 31 29 26 27 27
15 16 18 18 17 18 17 17 17 17 18 18 19 20 26 22 23 24 26 27 29 31 30 30 28 26 21 17 12 9 4 4 11 14 20 21 26 29 29 29 27 25 23
14 15 17 18 18 16 17 16 17 17 17 17 18 19 20 21 22 22 22 23 22 23 25 29 29 27 24 21 17 13 8 8 8 9 9 20 21 22 24 28 28 26 27
13 15 16 17 17 16 16 16 16 16 16 16 17 18 19 19 19 20 20 20 21 21 20 21 22 27 28 25 22 20 20 15 11 11 13 14 17 21 24 27 31 26 28
12 14 14 14 15 15 14 14 15 15 15 16 17 17 18 19 19 19 19 19 19 19 19 19 20 21 24 26 26 26 23 19 18 15 14 13 13 16 23 27 31 32 27
13 15 14 12 12 13 14 13 13 13 15 15 16 17 17 18 18 18 19 19 19 18 18 18 19 20 21 23 24 24 23 21 16 15 9 11 16 18 21 24 32 34 37
Wind_Direction
19 6 355 346 333 323 316 313 312 308 304 303 301 292 283 274 267 268 265 261 254 252 242 246 239 236 238 229 261 258 260 262 260 277 279 275 270 267 260 258 261 259 253
8 2 357 347 336 323 318 315 312 309 309 309 306 301 296 288 281 275 267 265 257 247 243 239 237 238 232 260 250 251 255 264 271 273 277 275 271 268 265 259 258 248 254
2 354 350 342 331 322 317 317 315 312 310 306 301 296 293 292 289 280 272 268 261 251 250 244 247 241 245 247 239 248 255 265 275 276 274 270 269 274 269 267 264 263 247
351 346 335 335 326 317 309 307 306 305 303 305 302 297 294 295 296 294 287 282 274 264 262 255 250 246 242 238 243 255 264 277 257 264 268 268 268 272 270 269 262 257 255
336 331 326 322 318 312 308 304 301 298 299 299 301 299 295 294 295 289 285 287 284 278 265 259 250 242 244 245 252 250 268 261 246 251 260 265 264 267 261 266 260 253 256
328 324 322 322 320 317 316 314 311 306 303 299 298 296 294 295 291 290 293 287 285 282 280 272 272 242 251 253 247 248 260 252 242 248 259 262 263 264 264 264 259 254 253
326 326 328 327 325 323 320 316 313 311 310 310 306 304 299 296 297 295 297 294 281 274 269 265 262 259 256 254 258 256 245 247 246 247 252 259 258 258 264 266 254 249 248
331 330 330 328 325 324 323 323 320 314 312 310 307 305 305 304 301 299 298 292 279 272 268 266 263 263 260 256 257 252 251 246 250 251 251 257 252 260 264 250 249 246 251
331 330 329 327 323 322 323 320 321 317 316 313 312 304 304 306 307 303 298 293 284 274 268 266 263 260 259 258 250 247 243 244 253 256 256 252 249 252 248 247 242 239 240
331 330 329 330 330 331 321 316 318 321 319 317 318 323 318 321 318 307 308 294 288 282 276 265 258 257 255 247 247 244 240 245 242 244 252 252 247 247 239 235 239 240 241
330 331 339 341 332 334 332 333 331 329 331 334 330 331 334 322 324 312 306 304 292 281 280 280 275 261 254 258 246 238 241 244 234 235 252 238 222 220 231 230 237 246 249
337 336 340 335 341 338 342 342 339 340 338 334 332 332 333 334 332 315 301 293 284 286 285 290 283 276 263 267 243 239 229 234 231 240 237 223 220 219 217 227 237 238 231
339 336 337 340 343 345 346 344 341 341 337 331 331 333 336 339 339 331 321 290 296 300 289 295 271 257 254 242 238 232 231 234 223 229 216 221 212 206 202 201 191 226 251
341 341 343 339 345 345 349 343 343 344 345 343 338 335 335 343 343 343 321 301 294 311 297 287 270 255 260 251 248 236 231 218 208 212 210 200 194 182 176 152 130 123 137
346 346 349 345 348 348 353 346 349 350 353 349 346 342 342 338 341 339 332 315 296 289 283 291 279 275 263 250 245 240 222 208 201 208 206 186 182 183 176 162 156 131 119
356 348 354 351 349 352 353 355 359 358 2 359 353 344 339 336 336 341 346 334 305 288 286 307 306 298 270 259 248 236 204 202 199 203 202 187 186 185 182 173 169 158 149
360 354 357 344 357 358 360 1 357 356 5 9 10 10 1 350 344 360 7 25 28 28 13 359 347 341 293 266 230 212 202 209 205 203 200 193 196 193 189 190 176 179 170
2 355 1 357 4 7 7 6 9 8 8 10 19 16 19 20 10 8 7 1 38 44 19 21 349 340 336 265 224 236 208 210 201 202 196 199 202 196 195 197 192 185 184
1 4 8 359 356 4 3 5 9 18 17 17 19 26 25 27 31 36 34 26 26 19 1 16 34 32 337 320 286 260 224 206 215 215 203 207 202 204 203 201 200 192 192
9 359 16 6 4 5 4 3 0 6 7 13 20 22 20 25 28 33 36 38 34 32 29 29 27 14 25 32 341 322 247 220 227 219 217 214 211 215 213 211 203 199 203
9 7 10 9 6 6 7 6 6 5 6 8 8 7 19 27 32 32 33 34 34 34 35 35 34 26 21 12 4 304 258 274 238 239 247 223 227 226 215 213 209 204 200
5 6 6 6 6 6 7 6 7 9 9 9 10 7 13 19 21 19 21 25 30 34 34 36 37 38 32 15 347 337 347 252 229 247 247 237 236 224 222 199 196 195 197
357 359 1 3 3 3 6 8 7 9 10 10 11 11 14 15 15 18 16 15 20 18 19 26 32 32 32 27 19 0 328 290 285 260 273 222 227 213 207 202 196 200 197
345 349 352 355 355 360 359 1 3 6 8 9 10 11 10 9 10 10 12 12 11 15 18 20 20 22 25 24 20 23 19 359 312 283 270 267 212 215 213 213 203 201 201
329 334 342 344 349 348 348 352 355 357 357 358 359 360 1 3 3 3 3 2 3 4 5 10 11 10 14 17 20 18 9 10 349 314 296 274 245 225 214 213 210 204 211
309 316 318 325 332 332 331 336 339 346 350 353 353 355 354 354 355 355 355 354 356 354 353 353 355 0 357 2 5 6 9 7 358 9 339 297 249 243 240 237 223 215 209
Height
1510 1508 1506 1504 1502 1499 1496 1493 1490 1488 1485 1482 1479 1476 1474 1473 1472 1471 1469 1468 1467 1465 1466 1468 1465 1470 1473 1475 1484 1485 1483 1484 1481 1482 1484 1483 1479 1478 1480 1481 1481 1480 1480
1507 1505 1503 1501 1498 1496 1493 1490 1487 1484 1480 1477 1474 1470 1468 1465 1463 1461 1459 1458 1455 1455 1456 1457 1458 1460 1462 1464 1474 1476 1475 1476 1474 1471 1477 1475 1470 1470 1470 1470 1470 1472 1473
1507 1505 1502 1500 1496 1493 1490 1486 1482 1478 1475 1472 1469 1466 1462 1459 1456 1454 1452 1450 1448 1447 1447 1447 1449 1451 1453 1454 1459 1463 1464 1466 1467 1464 1466 1468 1462 1461 1462 1461 1461 1462 1463
1505 1503 1500 1497 1493 1490 1486 1481 1477 1474 1470 1467 1464 1461 1457 1454 1451 1447 1444 1441 1440 1439 1438 1438 1438 1440 1442 1445 1448 1450 1453 1452 1456 1460 1457 1456 1452 1452 1452 1452 1452 1454 1455
1502 1499 1496 1492 1488 1484 1480 1476 1471 1467 1464 1461 1457 1454 1451 1449 1446 1442 1439 1435 1432 1429 1428 1427 1428 1430 1432 1435 1437 1438 1440 1443 1445 1451 1447 1445 1443 1442 1443 1444 1444 1447 1448
1499 1495 1490 1486 1481 1477 1472 1468 1464 1460 1456 1453 1450 1447 1443 1441 1438 1433 1430 1427 1425 1421 1419 1418 1410 1407 1415 1421 1425 1426 1431 1433 1435 1439 1438 1435 1434 1434 1435 1436 1436 1438 1439
1495 1491 1486 1481 1477 1472 1468 1463 1459 1455 1450 1446 1443 1439 1436 1433 1428 1424 1420 1417 1415 1414 1412 1412 1411 1413 1416 1414 1411 1413 1419 1423 1424 1428 1427 1425 1426 1427 1427 1428 1428 1429 1430
1491 1487 1483 1478 1474 1469 1464 1460 1455 1451 1446 1442 1437 1433 1428 1425 1421 1416 1412 1408 1406 1404 1402 1401 1402 1402 1401 1402 1404 1407 1408 1410 1412 1415 1415 1415 1417 1418 1419 1420 1421 1422 1423
1488 1484 1479 1474 1469 1463 1458 1454 1450 1445 1441 1437 1433 1427 1422 1416 1411 1407 1403 1400 1396 1395 1394 1393 1392 1392 1393 1394 1396 1399 1402 1404 1406 1406 1406 1406 1408 1410 1412 1414 1414 1416 1416
1485 1480 1475 1469 1463 1458 1453 1449 1444 1440 1435 1430 1425 1421 1417 1410 1404 1399 1396 1391 1387 1385 1384 1383 1383 1384 1385 1386 1387 1390 1393 1395 1398 1396 1397 1399 1400 1403 1405 1408 1411 1410 1410
1481 1475 1469 1464 1459 1454 1449 1445 1441 1437 1431 1426 1422 1417 1412 1406 1395 1390 1387 1383 1379 1377 1376 1374 1373 1374 1375 1376 1378 1382 1385 1388 1389 1391 1392 1394 1395 1398 1400 1403 1403 1403 1402
1476 1472 1466 1462 1457 1452 1447 1443 1439 1433 1428 1423 1417 1411 1407 1399 1388 1383 1378 1375 1373 1370 1368 1367 1365 1365 1366 1367 1368 1372 1377 1381 1383 1386 1389 1390 1392 1395 1397 1398 1398 1397 1397
1475 1470 1464 1459 1455 1451 1445 1441 1437 1432 1425 1420 1413 1406 1400 1393 1385 1379 1371 1368 1367 1365 1362 1359 1358 1359 1360 1362 1364 1367 1371 1375 1378 1381 1385 1387 1390 1393 1395 1396 1396 1394 1393
1473 1468 1464 1459 1453 1450 1444 1440 1435 1430 1423 1416 1410 1403 1397 1390 1381 1371 1366 1364 1363 1359 1357 1356 1354 1355 1357 1358 1360 1363 1365 1369 1373 1376 1380 1385 1388 1391 1394 1395 1396 1394 1393
1471 1467 1462 1458 1453 1447 1443 1438 1433 1429 1424 1416 1410 1403 1394 1386 1378 1372 1364 1360 1358 1357 1356 1354 1354 1354 1354 1355 1356 1358 1361 1365 1369 1373 1378 1381 1384 1388 1392 1394 1398 1399 1398
1469 1466 1462 1457 1451 1446 1441 1436 1433 1428 1423 1418 1412 1404 1397 1389 1380 1372 1365 1359 1355 1354 1355 1353 1352 1351 1351 1351 1352 1354 1358 1362 1364 1370 1375 1378 1381 1385 1389 1392 1396 1400 1401
1468 1464 1461 1455 1449 1445 1440 1435 1429 1425 1422 1417 1411 1403 1395 1388 1378 1372 1367 1361 1359 1358 1355 1355 1353 1352 1351 1351 1352 1354 1356 1359 1361 1367 1372 1375 1379 1383 1385 1390 1394 1397 1401
1469 1465 1461 1455 1449 1445 1441 1437 1432 1425 1419 1414 1410 1404 1397 1389 1381 1374 1369 1366 1360 1358 1356 1356 1356 1355 1353 1353 1354 1355 1357 1358 1361 1362 1368 1373 1377 1380 1384 1387 1391 1396 1398
1469 1465 1461 1458 1454 1447 1444 1440 1433 1428 1423 1417 1411 1406 1400 1393 1386 1379 1372 1367 1363 1359 1358 1356 1355 1353 1355 1355 1355 1354 1353 1358 1362 1360 1367 1371 1374 1378 1380 1384 1389 1392 1395
1470 1465 1462 1459 1455 1451 1447 1443 1438 1433 1429 1422 1415 1408 1403 1395 1388 1382 1378 1374 1368 1366 1360 1355 1356 1356 1355 1354 1355 1355 1353 1356 1359 1362 1365 1368 1372 1374 1376 1380 1385 1388 1392
1471 1468 1464 1460 1457 1453 1448 1444 1440 1436 1432 1428 1423 1417 1411 1402 1397 1392 1387 1381 1376 1372 1368 1362 1357 1357 1359 1357 1355 1353 1353 1355 1357 1360 1361 1363 1366 1367 1372 1375 1377 1385 1388
1472 1469 1465 1461 1458 1454 1450 1447 1443 1439 1435 1431 1427 1422 1416 1412 1407 1402 1395 1390 1386 1381 1376 1371 1367 1362 1359 1359 1358 1356 1354 1353 1354 1356 1357 1358 1357 1363 1365 1367 1374 1380 1385
1472 1469 1466 1463 1460 1456 1452 1448 1445 1441 1437 1434 1430 1425 1421 1416 1412 1407 1402 1397 1392 1389 1383 1377 1373 1369 1365 1361 1361 1358 1355 1354 1353 1351 1352 1352 1356 1359 1363 1367 1371 1376 1379
1471 1469 1466 1463 1459 1456 1453 1450 1447 1443 1440 1436 1432 1428 1424 1420 1416 1411 1407 1402 1398 1393 1389 1385 1381 1377 1373 1368 1364 1359 1357 1354 1353 1352 1352 1342 1350 1355 1359 1363 1366 1368 1375
1469 1467 1465 1462 1459 1457 1454 1450 1447 1444 1441 1437 1434 1430 1426 1422 1418 1414 1410 1406 1401 1397 1392 1389 1385 1380 1375 1371 1367 1363 1359 1354 1350 1350 1349 1349 1346 1351 1352 1358 1361 1365 1368
1467 1465 1463 1460 1458 1455 1452 1449 1446 1443 1440 1437 1434 1431 1427 1423 1420 1416 1412 1408 1404 1400 1395 1391 1386 1382 1378 1373 1369 1366 1362 1357 1353 1350 1348 1347 1347 1348 1349 1351 1355 1357 1360